When you browse on this site, cookies collect data to enhance your experience and personalize the content and advertising you see.
Visit our Privacy Policy to learn more. By continuing to use the site, you agree to this use of cookies and data.
  • In Spain
  • List of Countries
  • For 7 days
  • Water Temperature
  • Weather Map
  • Weather Widgets
  • user-avatar
    Login

    Hourly Weather La Ligua

    Today, 27 February, Thursday

    Time Temperature Precipitation Wind Pressure Humidity
    00:00 +15°C° 0 mm 0 mps 754 mmHg 80%
    01:00 +14°C° 0 mm 0 mps 754 mmHg 81%
    02:00 +14°C° 0 mm 0 mps 754 mmHg 81%
    03:00 +14°C° 0 mm 0 mps 754 mmHg 81%
    04:00 +14°C° 0 mm 0 mps 754 mmHg 82%
    05:00 +16°C° 0 mm 0 mps 754 mmHg 74%
    06:00 +18°C° 0 mm 0 mps 754 mmHg 66%
    07:00 +21°C° 0 mm 0 mps 755 mmHg 62%
    08:00 +25°C° 0 mm 1 mps 755 mmHg 54%
    09:00 +27°C° 0 mm 2 mps 755 mmHg 46%
    10:00 +30°C° 0 mm 3 mps 755 mmHg 37%
    11:00 +30°C° 0 mm 3 mps 755 mmHg 35%
    12:00 +31°C° 0 mm 3 mps 754 mmHg 34%
    13:00 +33°C° 0 mm 4 mps 754 mmHg 32%
    14:00 +32°C° 0 mm 4 mps 754 mmHg 34%
    15:00 +30°C° 0 mm 3 mps 754 mmHg 37%
    16:00 +30°C° 0 mm 3 mps 753 mmHg 39%
    17:00 +26°C° 0 mm 2 mps 754 mmHg 53%
    18:00 +22°C° 0 mm 1 mps 754 mmHg 68%
    19:00 +18°C° 0 mm 1 mps 754 mmHg 82%
    20:00 +16°C° 0 mm 0 mps 754 mmHg 83%
    21:00 +16°C° 0 mm 0 mps 754 mmHg 83%
    22:00 +15°C° 0 mm 0 mps 755 mmHg 84%
    23:00 +15°C° 0 mm 0 mps 754 mmHg 83%

    Tomorrow, 28 February, Friday

    Time Temperature Precipitation Wind Pressure Humidity
    00:00 +15°C° 0 mm 0 mps 754 mmHg 83%
    01:00 +15°C° 0 mm 0 mps 754 mmHg 82%
    02:00 +15°C° 0 mm 0 mps 754 mmHg 82%
    03:00 +15°C° 0 mm 0 mps 754 mmHg 81%
    04:00 +14°C° 0 mm 0 mps 754 mmHg 81%
    05:00 +17°C° 0 mm 0 mps 754 mmHg 71%
    06:00 +20°C° 0 mm 0 mps 754 mmHg 61%
    07:00 +23°C° 0 mm 0 mps 755 mmHg 51%
    08:00 +27°C° 0 mm 1 mps 755 mmHg 45%
    09:00 +29°C° 0 mm 2 mps 755 mmHg 39%
    10:00 +33°C° 0 mm 3 mps 755 mmHg 33%
    11:00 +33°C° 0 mm 3 mps 755 mmHg 32%
    12:00 +34°C° 0 mm 3 mps 755 mmHg 30%
    13:00 +34°C° 0 mm 4 mps 755 mmHg 29%
    14:00 +33°C° 0 mm 3 mps 754 mmHg 31%
    15:00 +31°C° 0 mm 3 mps 754 mmHg 33%
    16:00 +30°C° 0 mm 3 mps 754 mmHg 35%
    17:00 +26°C° 0 mm 2 mps 754 mmHg 49%
    18:00 +23°C° 0 mm 1 mps 755 mmHg 62%
    19:00 +17°C° 0 mm 0 mps 755 mmHg 76%
    20:00 +17°C° 0 mm 0 mps 755 mmHg 76%
    21:00 +19°C° 0 mm 1 mps 755 mmHg 76%
    22:00 +18°C° 0 mm 1 mps 755 mmHg 75%
    23:00 +18°C° 0 mm 1 mps 755 mmHg 76%

    Day after tomorrow, 29 February, Saturday

    Time Temperature Precipitation Wind Pressure Humidity
    00:00 +16°C° 0 mm 0 mps 754 mmHg 76%
    01:00 +16°C° 0 mm 0 mps 754 mmHg 76%
    02:00 +15°C° 0 mm 0 mps 754 mmHg 77%
    03:00 +15°C° 0 mm 0 mps 754 mmHg 78%
    04:00 +14°C° 0 mm 0 mps 754 mmHg 79%
    05:00 +17°C° 0 mm 0 mps 754 mmHg 68%
    06:00 +20°C° 0 mm 0 mps 754 mmHg 58%
    07:00 +23°C° 0 mm 0 mps 755 mmHg 47%
    08:00 +27°C° 0 mm 1 mps 755 mmHg 42%
    09:00 +29°C° 0 mm 2 mps 754 mmHg 37%
    10:00 +31°C° 0 mm 3 mps 754 mmHg 32%
    11:00 +33°C° 0 mm 3 mps 754 mmHg 32%
    12:00 +33°C° 0 mm 4 mps 754 mmHg 32%
    13:00 +33°C° 0 mm 4 mps 754 mmHg 32%
    14:00 +32°C° 0 mm 4 mps 754 mmHg 34%
    15:00 +30°C° 0 mm 3 mps 754 mmHg 36%
    16:00 +30°C° 0 mm 3 mps 754 mmHg 38%
    17:00 +26°C° 0 mm 2 mps 754 mmHg 53%
    18:00 +22°C° 0 mm 1 mps 754 mmHg 68%
    19:00 +17°C° 0 mm 0 mps 754 mmHg 82%
    20:00 +16°C° 0 mm 0 mps 754 mmHg 82%
    21:00 +16°C° 0 mm 0 mps 754 mmHg 83%
    22:00 +16°C° 0 mm 0 mps 754 mmHg 83%
    23:00 +15°C° 0 mm 0 mps 754 mmHg 83%

    1 March, Sunday

    Time Temperature Precipitation Wind Pressure Humidity
    00:00 +15°C° 0 mm 0 mps 753 mmHg 84%
    01:00 +15°C° 0 mm 0 mps 753 mmHg 85%
    02:00 +14°C° 0 mm 0 mps 753 mmHg 85%
    03:00 +14°C° 0 mm 0 mps 753 mmHg 85%
    04:00 +14°C° 0 mm 0 mps 753 mmHg 85%
    05:00 +16°C° 0 mm 0 mps 753 mmHg 77%
    06:00 +19°C° 0 mm 0 mps 754 mmHg 68%
    07:00 +23°C° 0 mm 1 mps 754 mmHg 60%
    08:00 +25°C° 0 mm 1 mps 754 mmHg 53%
    09:00 +28°C° 0 mm 2 mps 754 mmHg 46%
    10:00 +30°C° 0 mm 3 mps 754 mmHg 38%
    11:00 +30°C° 0 mm 3 mps 754 mmHg 38%
    12:00 +32°C° 0 mm 4 mps 754 mmHg 38%
    13:00 +32°C° 0 mm 4 mps 755 mmHg 37%
    14:00 +30°C° 0 mm 4 mps 754 mmHg 40%
    15:00 +29°C° 0 mm 3 mps 754 mmHg 42%
    16:00 +29°C° 0 mm 3 mps 754 mmHg 45%
    17:00 +25°C° 0 mm 2 mps 754 mmHg 59%
    18:00 +22°C° 0 mm 1 mps 754 mmHg 73%
    19:00 +19°C° 0 mm 1 mps 754 mmHg 87%
    20:00 +16°C° 0 mm 0 mps 754 mmHg 88%
    21:00 +16°C° 0 mm 0 mps 754 mmHg 89%
    22:00 +15°C° 0 mm 0 mps 754 mmHg 89%
    23:00 +15°C° 0 mm 0 mps 754 mmHg 89%

    2 March, Monday

    Time Temperature Precipitation Wind Pressure Humidity
    00:00 +15°C° 0 mm 0 mps 754 mmHg 89%
    01:00 +16°C° 0 mm 1 mps 753 mmHg 89%
    02:00 +14°C° 0 mm 0 mps 753 mmHg 89%
    03:00 +14°C° 0 mm 0 mps 753 mmHg 89%
    04:00 +14°C° 0 mm 0 mps 753 mmHg 90%
    05:00 +16°C° 0 mm 0 mps 753 mmHg 82%
    06:00 +19°C° 0 mm 0 mps 754 mmHg 74%
    07:00 +21°C° 0 mm 0 mps 754 mmHg 65%
    08:00 +25°C° 0 mm 1 mps 754 mmHg 59%
    09:00 +27°C° 0 mm 2 mps 754 mmHg 53%
    10:00 +29°C° 0 mm 3 mps 754 mmHg 46%
    11:00 +29°C° 0 mm 3 mps 754 mmHg 46%
    12:00 +30°C° 0 mm 4 mps 754 mmHg 45%
    13:00 +30°C° 0 mm 4 mps 754 mmHg 45%
    14:00 +29°C° 0 mm 4 mps 754 mmHg 47%
    15:00 +28°C° 0 mm 3 mps 753 mmHg 50%
    16:00 +27°C° 0 mm 3 mps 753 mmHg 52%
    17:00 +24°C° 0 mm 2 mps 754 mmHg 65%
    18:00 +21°C° 0 mm 1 mps 754 mmHg 77%
    19:00 +18°C° 0 mm 1 mps 754 mmHg 89%
    20:00 +18°C° 0 mm 1 mps 754 mmHg 90%
    21:00 +15°C° 0 mm 0 mps 754 mmHg 90%
    22:00 +15°C° 0 mm 0 mps 754 mmHg 90%
    23:00 +15°C° 0 mm 0 mps 753 mmHg 90%

    3 March, Tuesday

    Time Temperature Precipitation Wind Pressure Humidity
    00:00 +15°C° 0 mm 0 mps 753 mmHg 89%
    01:00 +14°C° 0 mm 0 mps 753 mmHg 89%
    02:00 +14°C° 0 mm 0 mps 753 mmHg 89%
    03:00 +14°C° 0 mm 0 mps 752 mmHg 90%
    04:00 +13°C° 0 mm 0 mps 752 mmHg 91%
    05:00 +16°C° 0 mm 0 mps 753 mmHg 82%
    06:00 +18°C° 0 mm 0 mps 753 mmHg 74%
    07:00 +21°C° 0 mm 0 mps 753 mmHg 65%
    08:00 +25°C° 0 mm 1 mps 753 mmHg 57%
    09:00 +28°C° 0 mm 2 mps 753 mmHg 49%
    10:00 +30°C° 0 mm 3 mps 753 mmHg 40%
    11:00 +31°C° 0 mm 3 mps 753 mmHg 40%
    12:00 +32°C° 0 mm 4 mps 753 mmHg 39%
    13:00 +33°C° 0 mm 4 mps 753 mmHg 38%
    14:00 +31°C° 0 mm 3 mps 752 mmHg 40%
    15:00 +30°C° 0 mm 3 mps 752 mmHg 43%
    16:00 +28°C° 0 mm 3 mps 752 mmHg 45%
    17:00 +25°C° 0 mm 2 mps 753 mmHg 58%
    18:00 +22°C° 0 mm 1 mps 753 mmHg 71%
    19:00 +16°C° 0 mm 0 mps 753 mmHg 85%
    20:00 +16°C° 0 mm 0 mps 753 mmHg 85%
    21:00 +16°C° 0 mm 0 mps 753 mmHg 85%
    22:00 +15°C° 0 mm 0 mps 753 mmHg 85%
    23:00 +16°C° 0 mm 1 mps 753 mmHg 85%
    Show more